Regional Weather Roundup
Issued by NWS

Home | Current Version | Previous Version | Text Only | Print | Product List | Glossary Off
Versions: 1 2 3 4 5 6 7 8 9 10 11 12 13 14 15 16 17 18 19 20 21 22 23 24 25 26 27 28 29 30 31 32 33 34 35 36 37 38 39 40 41 42 43 44 45 46 47 48 49 50

000
ASUS43 KMKX 270600
RWRWI

WISCONSIN REGIONAL WEATHER ROUNDUP
NATIONAL WEATHER SERVICE MILWAUKEE/SULLIVAN WI
100 AM CDT TUE JUN 27 2017

NOTE: "FAIR" INDICATES FEW OR NO CLOUDS BELOW 12,000 FEET WITH NO
SIGNIFICANT WEATHER AND/OR OBSTRUCTIONS TO VISIBILITY.

WIZ001-002-006>008-014>016-023>028-270700-
NORTHWEST WISCONSIN

CITY           SKY/WX    TMP DP  RH WIND       PRES   REMARKS
SUPERIOR ARPT  NOT AVBL
ASHLAND        CLEAR     52  47  83 SW8       30.04S
6HR MIN TEMP:  51; 6HR MAX TEMP:  62;

HAYWARD        CLOUDY    54  51  90 CALM      30.07S
6HR MIN TEMP:  53; 6HR MAX TEMP:  64; 6HR PCP:  0.01;

SIREN          CLEAR     47  45  95 CALM      30.08S FOG
CUMBERLAND     CLEAR     48  46  93 CALM      30.09S
RICE LAKE      CLEAR     51  50  97 CALM      30.10S FOG
CHETEK         CLEAR     48  48 100 CALM      30.09F
LADYSMITH      CLOUDY    54  49  83 CALM      30.10S
EAU CLAIRE     NOT AVBL
MENOMONIE      CLEAR     52  48  88 SW6       30.10S
6HR MIN TEMP:  51; 6HR MAX TEMP:  64;

NEW RICHMOND   CLEAR     51  48  89 CALM      30.11S
OSCEOLA        CLEAR     50  50 100 CALM      30.13S
$$

WIZ003>005-009-010-017-018-270700-
NORTH CENTRAL WISCONSIN

CITY           SKY/WX    TMP DP  RH WIND       PRES   REMARKS
MANITOWISH WTR CLOUDY    46  46 100 CALM      30.05S
ARBOR VITAE    PTCLDY    46  44  94 CALM      30.05R
WOODRUFF       PTCLDY    46  44  94 CALM      30.05R
RHINELANDER    CLEAR     43  43 100 W5        30.06S
6HR MIN TEMP:  43; 6HR MAX TEMP:  62; 6HR PCP:  0.03;

EAGLE RIVER    PTCLDY    43  43 100 W3        30.04S
LAND O LAKES   MOCLDY    43  43 100 CALM      30.06R
6HR MIN TEMP:  42; 6HR MAX TEMP:  62; 6HR PCP:  0.01;

PHILLIPS       CLOUDY    48  48 100 CALM      30.07R
TOMAHAWK       NOT AVBL
MEDFORD        CLOUDY    50  46  84 W6        30.08S
MERRILL        CLEAR     43  43 100 CALM      30.07F
6HR MIN TEMP:  43; 6HR MAX TEMP:  65;

$$

WIZ029-030-035-036-043>047-270700-
CENTRAL WISCONSIN

CITY           SKY/WX    TMP DP  RH WIND       PRES   REMARKS
WAUSAU         CLEAR     51  47  86 NW3       30.06S
6HR MIN TEMP:  49; 6HR MAX TEMP:  64;

MOSINEE        CLEAR     50  46  87 W5        30.09R
MARSHFIELD     CLEAR     49  45  86 W7        30.08S
6HR MIN TEMP:  48; 6HR MAX TEMP:  61; 6HR PCP: TRACE;

STEVENS POINT  CLEAR     51  47  86 CALM      30.09R
WAUPACA        PTCLDY    54  49  84 W6        30.07F
6HR MIN TEMP:  54; 6HR MAX TEMP:  66;

WAUTOMA        CLEAR     47  45  93 W7        30.09S
6HR MIN TEMP:  47; 6HR MAX TEMP:  64;

WISC RAPIDS    CLEAR     47  45  93 CALM      30.10S
6HR MIN TEMP:  46; 6HR MAX TEMP:  66;

CAMP DOUGLAS   NOT AVBL
$$

WIZ011>013-019>022-031-037>040-048>050-270700-
NORTHEAST WISCONSIN

CITY           SKY/WX    TMP DP  RH WIND       PRES   REMARKS
ANTIGO         CLEAR     47  46  97 CALM      30.07R
SHAWANO        CLEAR     53  48  83 W6        30.05S
OCONTO         CLEAR     48  47  97 CALM      30.03S
STURGEON BAY     N/A     53  50  89 SW5         N/A
6HR MIN TEMP:  50; 6HR MAX TEMP:  59;

GREEN BAY      CLEAR     53  51  93 W6        30.04F
6HR MIN TEMP:  52; 6HR MAX TEMP:  59;

MANITOWOC      NOT AVBL
APPLETON       CLEAR     52  45  76 W9        30.05S
CLINTONVILLE   CLEAR     48  45  87 CALM      30.06S
OSHKOSH        CLEAR     54  46  74 W6        30.06S
6HR MIN TEMP:  51; 6HR MAX TEMP:  62;

$$

WIZ032>034-041-042-053>061-270700-
SOUTHWEST WISCONSIN

CITY           SKY/WX    TMP DP  RH WIND       PRES   REMARKS
LA CROSSE      CLEAR     57  50  77 S5        30.11S
6HR MIN TEMP:  56; 6HR MAX TEMP:  73;

SPARTA         CLEAR     45  45  99 CALM      30.12S
VIROQUA        CLEAR     55  46  73 W3        30.12S
BOSCOBEL       CLEAR     49  47  93 CALM      30.13R
6HR MIN TEMP:  48; 6HR MAX TEMP:  70;

PRAIRIE DU CHI PTCLDY    50  47  87 CALM      30.13R
PLATTEVILLE    CLEAR     53  46  77 W5        30.13R
$$

WIZ056-057-062-063-064-067-068-270700-
SOUTH CENTRAL WISCONSIN

CITY           SKY/WX    TMP DP  RH WIND       PRES   REMARKS
REEDSBURG      CLEAR     50  50 100 CALM      30.10S
BARABOO/DELLS  CLEAR     47  46  93 CALM      30.10S
LONE ROCK      NOT AVBL
MINERAL POINT  CLEAR     54  48  82 CALM      30.12S
MADISON        CLEAR     50  47  89 CALM      30.09S
6HR MIN TEMP:  50; 6HR MAX TEMP:  64;

MIDDLETON      CLEAR     49  49 100 CALM      30.10S
WATERTOWN      NOT AVBL
MONROE         CLEAR     54  45  71 SW7       30.11S
JANESVILLE     CLEAR     52  50  93 CALM      30.10S
$$

WIZ051-052-058>065-066-070>072-270700-
SOUTHEAST WISCONSIN

CITY           SKY/WX    TMP DP  RH WIND       PRES   REMARKS
MILWAUKEE      CLEAR     57  49  74 W5        30.09R
6HR MIN TEMP:  57; 6HR MAX TEMP:  66; 6HR PCP: TRACE;

WAUKESHA       CLEAR     50  45  81 SW3       30.10S
MILWAUKEE/TIMM CLEAR     52  45  76 CALM      30.09S
RACINE         CLEAR     53  47  79 W3        30.10S
6HR MIN TEMP:  53; 6HR MAX TEMP:  64;

KENOSHA        CLEAR     49  44  83 W3        30.10R
6HR MIN TEMP:  49; 6HR MAX TEMP:  64;

FOND DU LAC    CLEAR     52  44  74 SW5       30.07F
6HR MIN TEMP:  52; 6HR MAX TEMP:  62; 6HR PCP: TRACE;

SHEBOYGAN      CLEAR     49  49 100 SW3       30.06F
6HR MIN TEMP:  48; 6HR MAX TEMP:  59;

WEST BEND      CLEAR     48  48 100 CALM      30.08S
JUNEAU         CLEAR     48  46  91 CALM      30.09S
$$

LSZ147-162-270700-
LAKE SUPERIOR

STATION/POSITION TIME  TEMP    WIND        PRES    WAVE
                       AIR SEA DIR/SP/G            HT/PER
                 (UTC) (F)     (DEG/KT/KT) (MB)    (FT/S)
W MID LAKE BUOY  0450   44 39  270/  6/  8 1016.1S   1/ 3
DEVILS ISLAND    0500   55     250/ 12/ 14 1016.8F
SAXON HARBOR     0540   56     180/  4/  7 1016.6S
$$

LMZ867-665-643>646-270700-
LAKE MICHIGAN

STATION/POSITION TIME  TEMP    WIND        PRES    WAVE
                       AIR SEA DIR/SP/G            HT/PER
                 (UTC) (F)     (DEG/KT/KT) (MB)    (FT/S)
CHAMBERS ISLAND  0540   57     230/  7/ 11 1015.9S
S GREEN BAY BUOY 0530   60     230/ 14/ 17 1016.6R
N MID LAKE BUOY  0450   57 55  250/  4/  4 1016.5S   1
NORTHPORT PIER   0540   55     260/  3/  7 1015.9S
KEWAUNEE LAKESHO 0530   51     300/  4/  5 1016.8S
SHEBOYGAN LAKESH 0500   54     250/  4/  4 1018.1R
PORT WASHINGTON  0530   55     290/  3/  6 1019.0F
MILWAUKEE LAKESH 0530   58     290/  4/  5   N/A
S MID LAKE BUOY  0450   58 61  350/ 16/ 19 1018.1R   3/ 5
KENOSHA   LAKESH 0500   58     290/  6/  8 1018.6
$$

TC  - TEMPERATURE IN CELSIUS
VSB - VISIBILITY IN STATUTE MILES
WCI - WIND CHILL INDEX
HX  - HEAT INDEX





USA.gov is the U.S. government's official web portal to all federal, state and local government web resources and services.